Погода в Мостовой

Россия / Пермский край     57°50′12″N   56°40′38″E
темп.,
°C
ветер,
м/с
пор.,
м/с
влажн.,
%
обл.,
%
осадки,
мм/ч
давл.,
гПа
погр.,
м
21 апреля, ср
ср2123:00+2зсз11625 0.0 103210
02:00+1зсз11664 0.0 103210
05:000всв00670 0.0 103310
08:00+4юз11560 0.0 1033114
11:00+9ююв22400 0.0 1032724
14:00+11ю343469 0.0 10311209
17:00+12ююв453389 0.0 10301278
20:00+9ююв2252100 0.0 103028
22 апреля, чт
чт2223:00+6юв2364100 0.0 103056
02:00+5юв2665100 0.0 1029114
05:00+5ююв31361100 0.0 1029474
08:00+5ю51268100 0.0 1029910
11:00+7ю51161100 0.2 10291068
14:00+7ююз51075100 0.4 10301196
17:00+4ю51196100 2.1 1031908
20:00+4ю41095100 0.2 1031897
23 апреля, пт
пт2323:00+5ю31088100 0.4 1030814
02:00+5ю4894100 0.2 1029797
05:00+4ю3798100 0.4 1030741
08:00+4ю3797100 0.3 1030685
11:00+3ю2697100 0.4 1030508
14:00+4ю2596100 0.0 1030503
17:00+6ююв2386100 0.1 1030527
20:00+5ююв2388100 0.1 1030121
24 апреля, сб
сб2423:00+4вюв1195100 0.1 103025
02:00+4всв2496100 0.0 1029128
05:00+4всв3893100 0.0 1027278
08:00+5всв31089100 0.0 1025457
11:00+6в4988100 0.1 1023589
14:00+6в4992100 0.5 1021568
17:00+6вюв4793100 0.9 10191009
20:00+6вюв4894100 1.4 1018952
25 апреля, вс
вс2523:00+6вюв4119272 2.1 1017574
02:00+5вюв41089100 0.0 1015440
05:00+4вюв4989100 0.2 1014392
08:00+4вюв4891100 0.1 1013455
11:00+6юв4679100 0.1 1012839
14:00+7ююв4679100 0.1 1012954
17:00+5ююв3591100 0.6 1011719
20:00+5юв3695100 0.6 1011319